SVR8253 UUDD-UTDD

Flight info

Callsign SVR8253
Flight time N/A
Altitude 35000
Route TOGM4N TOGMO M56 DENUD M161 ODIVA L162 RIWIW Z514 GETLI G555 PR
Aircraft A321/M-VGDW/C

Departure

Time N/A
Airport Domodedovo International Airport (UUDD)

Arrival

Time 2026-04-29 13:03
Airport Dushanbe International Airport (UTDD)
Time Latitude Longitude Altitude Speed Heading
2026-04-29 10:21 52.48413 48.63290 33101 ft 494 kts 118°
2026-04-29 10:22 52.46014 48.73783 33111 ft 494 kts 118°
2026-04-29 10:22 52.43601 48.84320 33107 ft 494 kts 118°
2026-04-29 10:23 52.41169 48.94849 33116 ft 494 kts 118°
2026-04-29 10:23 52.38773 49.05178 33134 ft 494 kts 118°
2026-04-29 10:24 52.36334 49.15690 33136 ft 493 kts 118°
2026-04-29 10:24 52.33889 49.26174 33125 ft 493 kts 119°
2026-04-29 10:25 52.31426 49.36625 33120 ft 493 kts 119°
2026-04-29 10:25 52.28945 49.47065 33115 ft 492 kts 119°
2026-04-29 10:26 52.26469 49.57486 33114 ft 492 kts 119°
2026-04-29 10:26 52.23983 49.67911 33115 ft 492 kts 120°
2026-04-29 10:27 52.20234 49.83490 33112 ft 492 kts 120°
2026-04-29 10:28 52.17727 49.93863 33116 ft 492 kts 120°
2026-04-29 10:28 52.15209 50.04122 33114 ft 487 kts 124°
2026-04-29 10:28 52.13487 50.08729 33111 ft 468 kts 139°
2026-04-29 10:29 52.11323 50.12592 33117 ft 460 kts 143°
2026-04-29 10:29 52.06880 50.20079 33142 ft 461 kts 144°
2026-04-29 10:30 52.02362 50.27609 33115 ft 468 kts 144°
2026-04-29 10:30 51.97806 50.35233 33154 ft 473 kts 144°
2026-04-29 10:31 51.93198 50.42943 33147 ft 478 kts 144°
2026-04-29 10:31 51.88549 50.50701 33150 ft 480 kts 144°
2026-04-29 10:32 51.83900 50.58452 33150 ft 480 kts 144°
2026-04-29 10:32 51.80029 50.64875 33150 ft 480 kts 144°
2026-04-29 10:33 51.75360 50.72573 33154 ft 479 kts 144°
2026-04-29 10:33 51.70681 50.80257 33152 ft 480 kts 144°
2026-04-29 10:34 51.65997 50.87944 33150 ft 480 kts 144°
2026-04-29 10:34 51.61321 50.95608 33148 ft 480 kts 144°
2026-04-29 10:35 51.56640 51.03254 33157 ft 480 kts 144°
2026-04-29 10:35 51.51987 51.10828 33156 ft 479 kts 145°
2026-04-29 10:36 51.47295 51.18417 33155 ft 478 kts 145°
2026-04-29 10:36 51.42318 51.25204 33156 ft 461 kts 156°
2026-04-29 10:37 51.36982 51.30911 33165 ft 461 kts 156°
2026-04-29 10:37 51.31644 51.36590 33174 ft 461 kts 156°
2026-04-29 10:38 51.26298 51.42264 33183 ft 461 kts 156°
2026-04-29 10:38 51.20956 51.47926 33191 ft 461 kts 156°
2026-04-29 10:39 51.15650 51.53711 33197 ft 469 kts 150°
2026-04-29 10:39 51.13285 51.57393 33201 ft 483 kts 139°
2026-04-29 10:39 51.11139 51.61525 33208 ft 485 kts 139°
2026-04-29 10:40 51.06887 51.69764 33203 ft 484 kts 139°
2026-04-29 10:40 51.02607 51.78024 33188 ft 484 kts 139°
2026-04-29 10:41 50.98317 51.86254 33188 ft 483 kts 139°
2026-04-29 10:41 50.94021 51.94446 33188 ft 483 kts 139°
2026-04-29 10:42 50.89720 52.02626 33189 ft 482 kts 139°
2026-04-29 10:42 50.85428 52.10774 33196 ft 482 kts 139°
2026-04-29 10:43 50.81125 52.18929 33192 ft 482 kts 139°
2026-04-29 10:43 50.76821 52.27050 33195 ft 482 kts 139°
2026-04-29 10:44 50.72508 52.35158 33203 ft 482 kts 139°
2026-04-29 10:44 50.68196 52.43241 33198 ft 481 kts 139°
2026-04-29 10:45 50.63901 52.51332 33193 ft 481 kts 139°
2026-04-29 10:45 50.59608 52.59422 33194 ft 481 kts 139°
2026-04-29 10:46 50.55311 52.67483 33194 ft 480 kts 139°
2026-04-29 10:46 50.51018 52.75508 33184 ft 480 kts 139°
2026-04-29 10:47 50.46715 52.83521 33188 ft 479 kts 140°
2026-04-29 10:47 50.42406 52.91505 33186 ft 480 kts 140°
2026-04-29 10:48 50.38090 52.99497 33187 ft 480 kts 140°
2026-04-29 10:48 50.33767 53.07475 33182 ft 480 kts 140°
2026-04-29 10:49 50.29437 53.15441 33187 ft 480 kts 140°
2026-04-29 10:49 50.25106 53.23381 33187 ft 480 kts 140°
2026-04-29 10:50 50.20769 53.31311 33189 ft 480 kts 140°
2026-04-29 10:50 50.16425 53.39218 33185 ft 480 kts 140°
2026-04-29 10:51 50.12069 53.47124 33183 ft 480 kts 140°
2026-04-29 10:51 50.07719 53.55008 33187 ft 480 kts 140°
2026-04-29 10:52 50.03358 53.62879 33202 ft 480 kts 140°
2026-04-29 10:52 49.98993 53.70744 33201 ft 480 kts 140°
2026-04-29 10:53 49.94620 53.78604 33206 ft 480 kts 140°
2026-04-29 10:53 49.90246 53.86439 33201 ft 480 kts 140°
2026-04-29 10:54 49.85857 53.94259 33206 ft 480 kts 140°
2026-04-29 10:54 49.81466 54.02071 33202 ft 480 kts 140°
2026-04-29 10:55 49.77077 54.09870 33201 ft 480 kts 140°
2026-04-29 10:55 49.72683 54.17643 33197 ft 480 kts 140°
2026-04-29 10:56 49.68290 54.25386 33192 ft 480 kts 140°
2026-04-29 10:56 49.63890 54.33120 33187 ft 479 kts 140°
2026-04-29 10:57 49.59488 54.40832 33182 ft 479 kts 140°
2026-04-29 10:57 49.55083 54.48537 33183 ft 479 kts 140°
2026-04-29 10:58 49.50671 54.56216 33179 ft 479 kts 141°
2026-04-29 10:58 49.46281 54.63829 33167 ft 478 kts 140°
2026-04-29 10:59 49.41863 54.71475 33158 ft 479 kts 140°
2026-04-29 10:59 49.37438 54.79115 33156 ft 479 kts 141°
2026-04-29 11:00 49.33010 54.86744 33148 ft 479 kts 141°
2026-04-29 11:00 49.28582 54.94362 33140 ft 479 kts 141°
2026-04-29 11:01 49.24137 55.01975 33144 ft 479 kts 141°
2026-04-29 11:01 49.19684 55.09569 33136 ft 479 kts 141°
2026-04-29 11:02 49.15220 55.17142 33135 ft 479 kts 141°
2026-04-29 11:02 49.10762 55.24734 33134 ft 480 kts 141°
2026-04-29 11:03 49.06303 55.32311 33127 ft 479 kts 141°
2026-04-29 11:03 49.01823 55.39833 33126 ft 479 kts 141°
2026-04-29 11:04 48.97343 55.47357 33116 ft 480 kts 141°
2026-04-29 11:04 48.92897 55.54847 33122 ft 480 kts 141°
2026-04-29 11:05 48.88405 55.62357 33122 ft 480 kts 141°
2026-04-29 11:05 48.83905 55.69855 33113 ft 480 kts 141°
2026-04-29 11:06 48.79398 55.77351 33113 ft 481 kts 141°
2026-04-29 11:06 48.74879 55.84832 33110 ft 481 kts 141°
2026-04-29 11:07 48.70354 55.92310 33102 ft 481 kts 141°
2026-04-29 11:07 48.65821 55.99773 33102 ft 482 kts 141°
2026-04-29 11:08 48.61280 56.07231 33101 ft 482 kts 141°
2026-04-29 11:08 48.56732 56.14686 33106 ft 483 kts 141°
2026-04-29 11:09 48.52170 56.22124 33095 ft 483 kts 141°
2026-04-29 11:09 48.47592 56.29551 33093 ft 484 kts 141°
2026-04-29 11:10 48.43008 56.36995 33091 ft 485 kts 141°
2026-04-29 11:10 48.38415 56.44441 33096 ft 485 kts 141°
2026-04-29 11:11 48.33815 56.51871 33090 ft 486 kts 141°
2026-04-29 11:11 48.29204 56.59307 33099 ft 486 kts 141°
2026-04-29 11:12 48.24618 56.66681 33091 ft 486 kts 141°
2026-04-29 11:12 48.19992 56.74092 33101 ft 487 kts 141°
2026-04-29 11:13 48.15361 56.81503 33103 ft 487 kts 141°
2026-04-29 11:13 48.10729 56.88898 33109 ft 487 kts 141°
2026-04-29 11:14 48.06088 56.96279 33097 ft 486 kts 141°
2026-04-29 11:14 48.01447 57.03630 33099 ft 486 kts 141°
2026-04-29 11:15 47.96801 57.10967 33090 ft 487 kts 141°
2026-04-29 11:15 47.92140 57.18291 33085 ft 486 kts 141°
2026-04-29 11:16 47.87481 57.25600 33078 ft 486 kts 141°
2026-04-29 11:16 47.82864 57.32835 33083 ft 486 kts 141°
2026-04-29 11:17 47.78204 57.40139 33074 ft 486 kts 141°
2026-04-29 11:17 47.73548 57.47404 33079 ft 486 kts 141°
2026-04-29 11:18 47.69661 57.53440 33079 ft 486 kts 141°
2026-04-29 11:18 47.64984 57.60674 33082 ft 485 kts 141°
2026-04-29 11:19 47.60314 57.67892 33074 ft 484 kts 141°
2026-04-29 11:19 47.55656 57.75084 33074 ft 484 kts 141°
2026-04-29 11:20 47.50987 57.82265 33073 ft 484 kts 141°
2026-04-29 11:20 47.46313 57.89427 33084 ft 484 kts 141°
2026-04-29 11:21 47.41645 57.96581 33075 ft 483 kts 141°
2026-04-29 11:21 47.36969 58.03705 33079 ft 482 kts 141°
2026-04-29 11:22 47.32289 58.10812 33070 ft 482 kts 141°
2026-04-29 11:22 47.27644 58.17855 33073 ft 482 kts 141°
2026-04-29 11:23 47.22976 58.24911 33068 ft 481 kts 141°
2026-04-29 11:23 47.18297 58.31956 33063 ft 480 kts 141°
2026-04-29 11:24 47.13625 58.38984 33059 ft 481 kts 141°
2026-04-29 11:24 47.08946 58.46010 33057 ft 480 kts 141°
2026-04-29 11:25 47.04269 58.52995 33060 ft 480 kts 141°
2026-04-29 11:25 46.99591 58.59981 33041 ft 480 kts 141°
2026-04-29 11:26 46.92561 58.70425 33036 ft 480 kts 141°
2026-04-29 11:26 46.87864 58.77376 33022 ft 481 kts 141°
2026-04-29 11:27 46.83157 58.84344 33022 ft 482 kts 141°
2026-04-29 11:27 46.78438 58.91294 33008 ft 482 kts 140°
2026-04-29 11:28 46.73712 58.98243 33009 ft 482 kts 140°
2026-04-29 11:28 46.68987 59.05174 33019 ft 483 kts 140°
2026-04-29 11:29 46.64253 59.12107 33018 ft 483 kts 140°
2026-04-29 11:29 46.59504 59.19029 33022 ft 484 kts 140°
2026-04-29 11:30 46.54743 59.25956 33023 ft 484 kts 140°
2026-04-29 11:30 46.49988 59.32863 33024 ft 484 kts 140°
2026-04-29 11:31 46.45219 59.39766 33023 ft 484 kts 140°
2026-04-29 11:31 46.40476 59.46611 33018 ft 484 kts 140°
2026-04-29 11:32 46.35695 59.53490 33011 ft 484 kts 140°
2026-04-29 11:32 46.30904 59.60366 33015 ft 485 kts 140°
2026-04-29 11:33 46.26107 59.67230 33015 ft 485 kts 140°
2026-04-29 11:33 46.21293 59.74065 33012 ft 485 kts 141°
2026-04-29 11:34 46.16359 59.80679 33013 ft 484 kts 142°
2026-04-29 11:34 46.11357 59.87176 33001 ft 484 kts 142°
2026-04-29 11:35 46.06357 59.93700 33011 ft 485 kts 142°
2026-04-29 11:35 46.01375 60.00253 33010 ft 486 kts 142°
2026-04-29 11:36 45.96391 60.06822 33003 ft 486 kts 142°
2026-04-29 11:36 45.91398 60.13373 32993 ft 486 kts 141°
2026-04-29 11:37 45.86401 60.19899 32985 ft 486 kts 142°
2026-04-29 11:37 45.81389 60.26420 32974 ft 487 kts 142°
2026-04-29 11:38 45.76368 60.32954 32976 ft 488 kts 141°
2026-04-29 11:38 45.71333 60.39476 32980 ft 488 kts 141°
2026-04-29 11:39 45.66291 60.45997 32976 ft 489 kts 141°
2026-04-29 11:39 45.61234 60.52512 32979 ft 489 kts 141°
2026-04-29 11:40 45.56172 60.59028 32984 ft 490 kts 141°
2026-04-29 11:40 45.51107 60.65532 32995 ft 490 kts 141°
2026-04-29 11:41 45.46026 60.72019 32998 ft 490 kts 141°
2026-04-29 11:41 45.40944 60.78498 33006 ft 491 kts 141°
2026-04-29 11:42 45.35859 60.84978 33004 ft 491 kts 141°
2026-04-29 11:42 45.30771 60.91436 32999 ft 490 kts 141°
2026-04-29 11:43 45.25681 60.97876 33000 ft 489 kts 141°
2026-04-29 11:43 45.20596 61.04300 33002 ft 489 kts 140°
2026-04-29 11:44 45.15516 61.10696 32998 ft 488 kts 140°
2026-04-29 11:44 45.10441 61.17080 32996 ft 487 kts 140°
2026-04-29 11:45 45.05380 61.23439 32996 ft 486 kts 140°
2026-04-29 11:45 45.00314 61.29776 32990 ft 485 kts 140°
2026-04-29 11:46 44.95286 61.36028 32987 ft 485 kts 140°
2026-04-29 11:46 44.90234 61.42313 32990 ft 484 kts 140°
2026-04-29 11:47 44.85190 61.48585 32983 ft 483 kts 140°
2026-04-29 11:47 44.80150 61.54835 32984 ft 482 kts 140°
2026-04-29 11:48 44.75120 61.61064 32986 ft 481 kts 140°
2026-04-29 11:48 44.70103 61.67268 32978 ft 480 kts 140°
2026-04-29 11:49 44.65086 61.73442 32982 ft 479 kts 140°
2026-04-29 11:49 44.60077 61.79589 32980 ft 478 kts 140°
2026-04-29 11:50 44.55068 61.85718 32982 ft 478 kts 140°
2026-04-29 11:50 44.50051 61.91843 32976 ft 477 kts 140°
2026-04-29 11:51 44.45039 61.97955 32978 ft 477 kts 140°
2026-04-29 11:51 44.40034 62.04044 32972 ft 477 kts 140°
2026-04-29 11:52 44.35023 62.10120 32968 ft 477 kts 140°
2026-04-29 11:52 44.30005 62.16195 32970 ft 477 kts 140°
2026-04-29 11:53 44.24988 62.22256 32970 ft 477 kts 140°
2026-04-29 11:53 44.19961 62.28298 32965 ft 477 kts 140°
2026-04-29 11:54 44.14931 62.34339 32969 ft 477 kts 140°
2026-04-29 11:54 44.09900 62.40363 32967 ft 477 kts 140°
2026-04-29 11:55 44.04861 62.46382 32962 ft 477 kts 140°
2026-04-29 11:55 43.99816 62.52394 32961 ft 478 kts 140°
2026-04-29 11:56 43.94767 62.58396 32961 ft 478 kts 140°
2026-04-29 11:56 43.89716 62.64390 32958 ft 478 kts 140°
2026-04-29 11:57 43.84688 62.70339 32957 ft 478 kts 140°
2026-04-29 11:57 43.79618 62.76311 32961 ft 479 kts 140°
2026-04-29 11:58 43.74551 62.82279 32962 ft 478 kts 140°
2026-04-29 11:58 43.69482 62.88243 32961 ft 478 kts 141°
2026-04-29 11:59 43.65234 62.93219 32959 ft 478 kts 141°
2026-04-29 11:59 43.60154 62.99158 32954 ft 478 kts 141°
2026-04-29 12:00 43.55083 63.05094 32953 ft 478 kts 141°
2026-04-29 12:00 43.50008 63.11006 32949 ft 478 kts 141°
2026-04-29 12:01 43.44111 63.17869 32942 ft 478 kts 141°
2026-04-29 12:01 43.39860 63.22802 32944 ft 477 kts 141°
2026-04-29 12:02 43.34807 63.28663 32942 ft 477 kts 141°
2026-04-29 12:02 43.29730 63.34552 32939 ft 477 kts 141°
2026-04-29 12:03 43.24649 63.40404 32936 ft 477 kts 141°
2026-04-29 12:03 43.19565 63.46248 32945 ft 477 kts 141°
2026-04-29 12:04 43.14480 63.52079 32946 ft 476 kts 141°
2026-04-29 12:04 43.09396 63.57905 32949 ft 476 kts 141°
2026-04-29 12:05 43.04319 63.63713 32956 ft 475 kts 142°
2026-04-29 12:05 42.99241 63.69502 32954 ft 475 kts 142°
2026-04-29 12:06 42.94167 63.75270 32951 ft 475 kts 142°
2026-04-29 12:06 42.89088 63.81017 32945 ft 474 kts 142°
2026-04-29 12:07 42.84018 63.86743 32948 ft 473 kts 142°
2026-04-29 12:07 42.78954 63.92446 32946 ft 472 kts 142°
2026-04-29 12:08 42.73899 63.98140 32939 ft 471 kts 142°
2026-04-29 12:08 42.68877 64.03784 32941 ft 471 kts 143°
2026-04-29 12:09 42.63822 64.09447 32941 ft 471 kts 143°
2026-04-29 12:09 42.58768 64.15087 32939 ft 470 kts 143°
2026-04-29 12:10 42.53572 64.20447 32940 ft 468 kts 147°
2026-04-29 12:10 42.48269 64.25563 32936 ft 467 kts 147°
2026-04-29 12:11 42.42982 64.30681 32928 ft 467 kts 147°
2026-04-29 12:11 42.37726 64.35869 32925 ft 467 kts 146°
2026-04-29 12:12 42.32475 64.41064 32927 ft 467 kts 147°
2026-04-29 12:12 42.27226 64.46237 32921 ft 466 kts 147°
2026-04-29 12:13 42.21979 64.51395 32922 ft 466 kts 147°
2026-04-29 12:13 42.16729 64.56516 32923 ft 466 kts 147°
2026-04-29 12:14 42.11483 64.61633 32922 ft 466 kts 147°
2026-04-29 12:14 42.06269 64.66716 32934 ft 465 kts 147°
2026-04-29 12:15 42.01025 64.71815 32934 ft 465 kts 147°
2026-04-29 12:15 41.95787 64.76898 32932 ft 465 kts 147°
2026-04-29 12:16 41.90539 64.81982 32928 ft 465 kts 147°
2026-04-29 12:16 41.85292 64.87057 32927 ft 464 kts 147°
2026-04-29 12:17 41.80058 64.92116 32928 ft 464 kts 147°
2026-04-29 12:17 41.74815 64.97165 32910 ft 463 kts 147°
2026-04-29 12:18 41.69572 65.02191 32906 ft 463 kts 147°
2026-04-29 12:18 41.64320 65.07207 32904 ft 464 kts 147°
2026-04-29 12:19 41.59067 65.12235 32906 ft 464 kts 147°
2026-04-29 12:19 41.53820 65.17262 32912 ft 464 kts 147°
2026-04-29 12:20 41.48557 65.22285 32914 ft 464 kts 147°
2026-04-29 12:20 41.43331 65.27256 32920 ft 465 kts 147°
2026-04-29 12:21 41.38067 65.32255 32921 ft 465 kts 147°
2026-04-29 12:21 41.32793 65.37249 32919 ft 465 kts 147°
2026-04-29 12:22 41.27519 65.42232 32926 ft 465 kts 147°
2026-04-29 12:22 41.22246 65.47209 32922 ft 465 kts 147°
2026-04-29 12:23 41.16967 65.52171 32921 ft 465 kts 147°
2026-04-29 12:23 41.11691 65.57128 32932 ft 464 kts 147°
2026-04-29 12:24 41.06418 65.62075 32925 ft 464 kts 147°
2026-04-29 12:24 41.01122 65.67000 32924 ft 464 kts 147°
2026-04-29 12:25 40.95858 65.71854 32923 ft 464 kts 147°
2026-04-29 12:26 40.87913 65.79184 32926 ft 465 kts 147°
2026-04-29 12:26 40.82617 65.84071 32927 ft 465 kts 147°
2026-04-29 12:27 40.77307 65.88955 32925 ft 465 kts 147°
2026-04-29 12:27 40.71995 65.93827 32924 ft 465 kts 147°
2026-04-29 12:28 40.66675 65.98699 32928 ft 466 kts 147°
2026-04-29 12:28 40.61357 66.03564 32930 ft 466 kts 147°
2026-04-29 12:29 40.56028 66.08418 32935 ft 466 kts 147°
2026-04-29 12:29 40.50694 66.13261 32936 ft 466 kts 147°
2026-04-29 12:30 40.45361 66.18107 32943 ft 466 kts 147°
2026-04-29 12:30 40.40021 66.22928 32949 ft 466 kts 147°
2026-04-29 12:31 40.34669 66.27713 32949 ft 465 kts 148°
2026-04-29 12:31 40.29307 66.32476 32947 ft 465 kts 148°
2026-04-29 12:32 40.23953 66.37241 32953 ft 465 kts 147°
2026-04-29 12:32 40.18628 66.42047 32952 ft 465 kts 147°
2026-04-29 12:33 40.13356 66.46823 32948 ft 464 kts 147°
2026-04-29 12:33 40.08043 66.51607 32944 ft 463 kts 147°
2026-04-29 12:34 40.02735 66.56358 32941 ft 463 kts 147°
2026-04-29 12:34 39.97421 66.61106 32931 ft 464 kts 147°
2026-04-29 12:35 39.92105 66.65868 32933 ft 462 kts 147°
2026-04-29 12:35 39.86821 66.70579 32933 ft 460 kts 148°
2026-04-29 12:36 39.81522 66.75268 32947 ft 463 kts 147°
2026-04-29 12:36 39.76196 66.80006 32956 ft 465 kts 147°
2026-04-29 12:37 39.70846 66.84772 32978 ft 468 kts 147°
2026-04-29 12:37 39.65465 66.89540 32970 ft 469 kts 148°
2026-04-29 12:38 39.60095 66.94272 32946 ft 464 kts 148°
2026-04-29 12:38 39.54728 66.98989 32958 ft 465 kts 147°
2026-04-29 12:39 39.49405 67.03665 32970 ft 464 kts 148°
2026-04-29 12:39 39.44060 67.08348 32964 ft 464 kts 147°
2026-04-29 12:40 39.38728 67.13002 32976 ft 462 kts 147°
2026-04-29 12:40 39.33415 67.17636 32996 ft 460 kts 148°
2026-04-29 12:41 39.28098 67.22272 33008 ft 461 kts 148°
2026-04-29 12:41 39.22780 67.26920 33032 ft 461 kts 147°
2026-04-29 12:42 39.17455 67.31574 33043 ft 463 kts 149°
2026-04-29 12:42 39.12132 67.36302 33044 ft 467 kts 146°
2026-04-29 12:43 39.07751 67.40402 33057 ft 469 kts 144°
2026-04-29 12:43 39.02498 67.45389 33065 ft 468 kts 144°
2026-04-29 12:43 38.99921 67.47851 33108 ft 455 kts 143°
2026-04-29 12:44 38.97612 67.50594 33101 ft 452 kts 133°
2026-04-29 12:44 38.95128 67.54881 33104 ft 453 kts 121°
2026-04-29 12:44 38.94140 67.57309 33109 ft 455 kts 117°
2026-04-29 12:45 38.91420 67.64644 33096 ft 455 kts 117°
2026-04-29 12:45 38.88683 67.71980 32858 ft 456 kts 117°
2026-04-29 12:45 38.87315 67.75646 32211 ft 458 kts 117°
2026-04-29 12:46 38.85944 67.79314 31225 ft 463 kts 117°
2026-04-29 12:46 38.84553 67.83035 30265 ft 462 kts 117°
2026-04-29 12:46 38.83179 67.86707 29121 ft 450 kts 117°
2026-04-29 12:46 38.81843 67.90269 28162 ft 438 kts 116°
2026-04-29 12:47 38.80517 67.93803 27099 ft 446 kts 117°
2026-04-29 12:47 38.79152 67.97429 25924 ft 456 kts 117°
2026-04-29 12:47 38.77759 68.01122 24807 ft 465 kts 117°
2026-04-29 12:47 38.76357 68.04840 24135 ft 461 kts 117°
2026-04-29 12:48 38.74965 68.08535 23331 ft 460 kts 117°
2026-04-29 12:48 38.73435 68.12104 22549 ft 455 kts 124°
2026-04-29 12:48 38.71533 68.15295 21849 ft 447 kts 133°
2026-04-29 12:48 38.69426 68.18167 21193 ft 441 kts 134°
2026-04-29 12:49 38.67334 68.21010 20529 ft 435 kts 134°
2026-04-29 12:49 38.65274 68.23814 19884 ft 429 kts 134°
2026-04-29 12:49 38.63243 68.26580 19251 ft 424 kts 134°
2026-04-29 12:49 38.61241 68.29304 18640 ft 418 kts 134°
2026-04-29 12:50 38.59270 68.31987 18018 ft 410 kts 134°
2026-04-29 12:50 38.57358 68.34659 17441 ft 405 kts 129°
2026-04-29 12:50 38.55829 68.37516 16905 ft 402 kts 119°
2026-04-29 12:50 38.54702 68.40763 16394 ft 398 kts 108°
2026-04-29 12:51 38.54064 68.44185 15870 ft 394 kts 97°
2026-04-29 12:51 38.53929 68.47617 15674 ft 379 kts 88°
2026-04-29 12:51 38.53999 68.50912 15550 ft 363 kts 88°
2026-04-29 12:51 38.54049 68.54075 15382 ft 350 kts 89°
2026-04-29 12:52 38.54089 68.57131 15222 ft 337 kts 89°
2026-04-29 12:52 38.54126 68.60070 15066 ft 325 kts 89°
2026-04-29 12:52 38.54162 68.62902 14919 ft 313 kts 88°
2026-04-29 12:52 38.54198 68.65602 14783 ft 302 kts 88°
2026-04-29 12:53 38.54233 68.68237 14638 ft 290 kts 89°
2026-04-29 12:53 38.54188 68.70749 14502 ft 281 kts 100°
2026-04-29 12:53 38.53389 68.72967 14383 ft 276 kts 133°
2026-04-29 12:53 38.51808 68.74336 14006 ft 280 kts 164°
2026-04-29 12:54 38.49868 68.74582 13532 ft 283 kts 179°
2026-04-29 12:54 38.47912 68.74362 13052 ft 284 kts 200°
2026-04-29 12:54 38.46309 68.72968 12622 ft 281 kts 234°
2026-04-29 12:54 38.45601 68.70716 12254 ft 275 kts 267°
2026-04-29 12:55 38.45573 68.68290 11887 ft 273 kts 271°
2026-04-29 12:55 38.45606 68.65881 11514 ft 271 kts 272°
2026-04-29 12:55 38.45643 68.63485 11160 ft 267 kts 272°
2026-04-29 12:55 38.45671 68.61130 10777 ft 263 kts 271°
2026-04-29 12:56 38.45690 68.58824 10457 ft 256 kts 271°
2026-04-29 12:56 38.45700 68.56570 10113 ft 252 kts 271°
2026-04-29 12:56 38.45705 68.54355 9758 ft 248 kts 271°
2026-04-29 12:56 38.45735 68.52198 9402 ft 244 kts 277°
2026-04-29 12:57 38.46355 68.50248 9058 ft 238 kts 310°
2026-04-29 12:57 38.47684 68.49074 8638 ft 234 kts 341°
2026-04-29 12:57 38.49280 68.48746 8126 ft 232 kts 359°
2026-04-29 12:57 38.50867 68.49056 7590 ft 232 kts 17°
2026-04-29 12:58 38.52307 68.49987 7097 ft 232 kts 36°
2026-04-29 12:58 38.53409 68.51409 6868 ft 220 kts 54°
2026-04-29 12:58 38.54100 68.53090 6646 ft 209 kts 70°
2026-04-29 12:58 38.54385 68.54875 6409 ft 202 kts 87°
2026-04-29 12:59 38.54393 68.56647 6165 ft 197 kts 90°
2026-04-29 12:59 38.54394 68.58382 5912 ft 193 kts 90°
2026-04-29 12:59 38.54394 68.60087 5657 ft 190 kts 90°
2026-04-29 12:59 38.54394 68.61748 5412 ft 187 kts 90°
2026-04-29 13:00 38.54394 68.63398 5172 ft 185 kts 90°
2026-04-29 13:00 38.54393 68.65032 4939 ft 182 kts 90°
2026-04-29 13:00 38.54392 68.66642 4716 ft 179 kts 90°
2026-04-29 13:00 38.54391 68.68191 4490 ft 172 kts 91°
2026-04-29 13:01 38.54389 68.69707 4263 ft 169 kts 91°
2026-04-29 13:01 38.54388 68.71197 4050 ft 167 kts 91°
2026-04-29 13:01 38.54388 68.72640 3831 ft 160 kts 91°
2026-04-29 13:01 38.54386 68.74041 3625 ft 155 kts 92°
2026-04-29 13:02 38.54383 68.75414 3424 ft 154 kts 92°
2026-04-29 13:02 38.54380 68.76780 3220 ft 153 kts 91°
2026-04-29 13:02 38.54378 68.78146 3018 ft 154 kts 92°
2026-04-29 13:02 38.54376 68.79508 2798 ft 152 kts 90°
2026-04-29 13:03 38.54368 68.80862 2611 ft 152 kts 92°
2026-04-29 13:03 38.54355 68.82119 2582 ft 117 kts 90°
2026-04-29 13:03 38.54359 68.82916 2579 ft 77 kts 89°
2026-04-29 13:03 38.54402 68.83275 2580 ft 24 kts 30°
2026-04-29 13:04 38.54562 68.83288 2582 ft 23 kts
2026-04-29 13:04 38.54688 68.83236 2579 ft 14 kts 288°
2026-04-29 13:04 38.54687 68.83122 2576 ft 14 kts 270°
2026-04-29 13:04 38.54687 68.82979 2576 ft 16 kts 270°
2026-04-29 13:05 38.54688 68.82837 2582 ft 16 kts 270°
2026-04-29 13:05 38.54688 68.82703 2582 ft 15 kts 269°
2026-04-29 13:05 38.54688 68.82577 2575 ft 14 kts 269°
2026-04-29 13:05 38.54693 68.82461 2582 ft 13 kts 280°
2026-04-29 13:06 38.54699 68.82354 2582 ft 11 kts 270°
2026-04-29 13:06 38.54699 68.82257 2582 ft 10 kts 270°
2026-04-29 13:06 38.54699 68.82169 2582 ft 10 kts 270°
2026-04-29 13:06 38.54699 68.82089 2582 ft 8 kts 270°
2026-04-29 13:07 38.54699 68.82019 2582 ft 7 kts 270°
2026-04-29 13:07 38.54699 68.81958 2578 ft 7 kts 270°
2026-04-29 13:07 38.54699 68.81874 2582 ft 10 kts 270°
2026-04-29 13:07 38.54699 68.81793 2582 ft 9 kts 270°
2026-04-29 13:08 38.54699 68.81719 2582 ft 8 kts 270°
2026-04-29 13:08 38.54699 68.81654 2582 ft 7 kts 270°
2026-04-29 13:08 38.54699 68.81597 2582 ft 6 kts 270°
2026-04-29 13:08 38.54703 68.81549 2577 ft 4 kts 287°
2026-04-29 13:09 38.54721 68.81525 2579 ft 3 kts 327°
2026-04-29 13:09 38.54735 68.81518 2582 ft 2 kts 344°
2026-04-29 13:09 38.54747 68.81516 2578 ft 2 kts 352°
2026-04-29 13:09 38.54754 68.81515 2578 ft 0 kts 356°
2026-04-29 13:10 38.54764 68.81515 2578 ft 7 kts 359°
2026-04-29 13:10 38.54798 68.81575 2580 ft 9 kts 85°
2026-04-29 13:10 38.54741 68.81629 2580 ft 17 kts 176°
2026-04-29 13:10 38.54690 68.81535 2579 ft 7 kts 258°
2026-04-29 13:11 38.54703 68.81485 2579 ft 5 kts 310°
2026-04-29 13:11 38.54732 68.81470 2576 ft 4 kts 353°
2026-04-29 13:11 38.54775 68.81481 2576 ft 4 kts 18°
2026-04-29 13:11 38.54783 68.81485 2578 ft 3 kts 19°
2026-04-29 13:12 38.54785 68.81486 2579 ft 0 kts 19°
2026-04-29 13:29 38.54785 68.81485 2582 ft 0 kts 19°
2026-04-29 13:29 38.54785 68.81486 2582 ft 0 kts 19°
2026-04-29 13:30 38.54785 68.81485 2582 ft 0 kts 19°
2026-04-29 13:34 38.54784 68.81485 2582 ft 0 kts 19°
2026-04-29 14:41 38.54087 68.56985 15237 ft 337 kts 89°
2026-04-29 14:41 38.54124 68.59935 15085 ft 325 kts 89°
2026-04-29 14:41 38.54160 68.62776 14939 ft 314 kts 88°
2026-04-29 14:41 38.54196 68.65484 14801 ft 303 kts 88°
2026-04-29 14:42 38.54232 68.68122 14661 ft 291 kts 88°
2026-04-29 14:42 38.54202 68.70638 14528 ft 280 kts 99°
2026-04-29 14:42 38.53444 68.72884 14405 ft 276 kts 131°
2026-04-29 14:42 38.51891 68.74300 14056 ft 280 kts 163°
2026-04-29 14:43 38.49962 68.74581 13571 ft 283 kts 179°
2026-04-29 14:43 38.47995 68.74394 13083 ft 284 kts 198°
2026-04-29 14:43 38.46367 68.73057 12665 ft 281 kts 232°
2026-04-29 14:43 38.45610 68.70826 12283 ft 275 kts 266°
2026-04-29 14:44 38.45572 68.68402 11920 ft 273 kts 272°
2026-04-29 14:44 38.45604 68.65989 11539 ft 271 kts 272°
2026-04-29 14:44 38.45641 68.63591 11185 ft 267 kts 272°
2026-04-29 14:44 38.45670 68.61232 10796 ft 263 kts 271°
2026-04-29 14:45 38.45688 68.58932 10420 ft 252 kts 271°
2026-04-29 14:45 38.45693 68.56670 8354 ft 266 kts 270°
2026-04-29 14:45 38.45698 68.54126 4277 ft 310 kts 270°
2026-04-29 14:45 38.45559 68.53736 3671 ft 5 kts 241°